COSMOS 1823 DEB, 18725

Orbit data source: Space-Track

COSMOS 1823 DEB, 18725 is space debris in LEO originally from a launch on Fri, 20 Feb 1987 UTC launched from the Plesetsk Missile And Space Complex (PKMTR). Debris objects in space refer to the collection of defunct objects orbiting the Earth. Examples of debris include non-operational satellites, rocket bodies, and fragments generated from explosions, collisions, or faulty payload assembly.

Loading next visibility...
Identifier
18725, 1987-020C
Orbit
LEO
Country
Flag of CISCIS
Related business
Manufacturer
Unknown
Mission
Spacecraft
Bus & Motor
Unknown
Mass
Unknown
Launch date (UTC)
1987-02-20 (39 years ago)
Launch vehicle
Unknown
Launch site
Plesetsk Missile And Space Complex (PKMTR)
Object type
Payload
Rocket body
Debris
Shape & HBR
Unknown shape, 0.1 m
Radar Cross Section
Medium (>0.1 m² and <1 m²)

Expand to show TLE details & history
Last TLE update: 2 days ago

TLE from 2 days ago
0 COSMOS 1823 DEB
1 18725U 87020C   26171.44373029  .00000065  00000-0  61654-3 0  9995
2 18725  73.7653 349.1772 0072698 148.0242 237.8599 12.38689175739813
Epoch: 2026-06-20T10:38Z
TLE epoch observation values (Epoch: 2026-06-20T10:38:58.297Z)
Latitude
24.14043°
Longitude
-71.76219°
Altitude
1,545.383 km
Speed
7.082 km/s
True Right ascension
23h 46m 33s
True Declination
24° 01' 30"
Sunlit
Object was in daylight at epoch
Visualization orbit readout
Latitude
Unknown
Longitude
Unknown
Altitude
Unknown
Speed
Unknown
Apparent Right ascension
Unknown
Apparent Declination
Unknown
Sunlit
N/A
Visualization observer readout
Local Sidereal Time
05:04:12
Azimuth
Unknown
Elevation
Unknown
Doppler factor
Unknown
Orbital elements
Apogee altitude
1,567.379 km
Perigee altitude
1,452.688 km
Semi-major axis
7,888.17 km
Eccentricity
0.00727
Inclination
73.7653°
RAAN
349.1772°
Arg. of periapsis
148.0242°
True anomaly
237.15792°
Mean anomaly
237.8599°
Eccentric anomaly
237.50857°
Mean motion
3.09798 °/min
Orbital period
116.2 mins
BSTAR
0.00061654
Loading maneuver chart data...
Computing Atmospheric mass density...
Loading historical data...
Loading historical data...
Loading historical data...
Loading historical data...
Loading historical data...
Loading historical data...
Loading historical data...

Documentation

Showing up to 5 results
|